Time,TemperatureF,DewpointF,PressureIn,WindDirection,WindDirectionDegrees,WindSpeedMPH,WindSpeedGustMPH,Humidity,HourlyPrecipIn,Conditions,Clouds,dailyrainin,SoftwareType,DateUTC
2013-10-24 00:00:00,44.6,30.7,29.82,NNW,337,1.1,-999.0,58,-99.99,,,0.00,Acu-Link.com,2013-10-24 04:00:00,
2013-10-24 00:16:00,42.8,30.3,29.81,SSW,202,0.0,-999.0,61,-99.99,,,0.00,Acu-Link.com,2013-10-24 04:16:00,
2013-10-24 00:31:00,42.8,31.9,29.82,NNE,22,0.0,-999.0,65,-99.99,,,0.00,Acu-Link.com,2013-10-24 04:31:00,
2013-10-24 00:46:00,41.0,31.3,29.82,North,0,0.0,-999.0,68,-99.99,,,0.00,Acu-Link.com,2013-10-24 04:46:00,
2013-10-24 01:01:00,41.0,33.4,29.83,NE,45,0.0,-999.0,74,-99.99,,,0.00,Acu-Link.com,2013-10-24 05:01:00,
2013-10-24 01:17:00,39.2,31.6,29.84,NNE,22,0.0,-999.0,74,-99.99,,,0.00,Acu-Link.com,2013-10-24 05:17:00,
2013-10-24 01:32:00,37.4,30.2,29.84,NNE,22,0.0,-999.0,75,-99.99,,,0.00,Acu-Link.com,2013-10-24 05:32:00,
2013-10-24 01:48:00,37.4,31.2,29.85,NNE,22,1.1,-999.0,78,-99.99,,,0.00,Acu-Link.com,2013-10-24 05:48:00,
2013-10-24 02:03:00,37.4,31.5,29.85,NNE,22,0.0,-999.0,79,-99.99,,,0.00,Acu-Link.com,2013-10-24 06:03:00,
2013-10-24 02:18:00,37.4,32.1,29.86,NE,45,0.0,-999.0,81,-99.99,,,0.00,Acu-Link.com,2013-10-24 06:18:00,
2013-10-24 02:33:00,35.6,30.7,29.86,North,0,0.0,-999.0,82,-99.99,,,0.00,Acu-Link.com,2013-10-24 06:33:00,
2013-10-24 02:48:00,35.6,30.7,29.85,WNW,292,0.0,-999.0,82,-99.99,,,0.00,Acu-Link.com,2013-10-24 06:48:00,
2013-10-24 03:03:00,35.6,31.0,29.86,ENE,67,0.0,-999.0,83,-99.99,,,0.00,Acu-Link.com,2013-10-24 07:03:00,
2013-10-24 03:18:00,35.6,31.0,29.85,NNE,22,0.0,-999.0,83,-99.99,,,0.00,Acu-Link.com,2013-10-24 07:18:00,
2013-10-24 03:34:00,35.6,30.1,29.86,WNW,292,0.0,-999.0,80,-99.99,,,0.00,Acu-Link.com,2013-10-24 07:34:00,
2013-10-24 03:49:00,35.6,29.7,29.85,NE,45,0.0,-999.0,79,-99.99,,,0.00,Acu-Link.com,2013-10-24 07:49:00,
2013-10-24 04:04:00,37.4,31.5,29.85,NNE,22,0.0,-999.0,79,-99.99,,,0.00,Acu-Link.com,2013-10-24 08:04:00,
2013-10-24 04:19:00,37.4,31.2,29.86,NW,315,0.0,-999.0,78,-99.99,,,0.00,Acu-Link.com,2013-10-24 08:19:00,
2013-10-24 04:34:00,37.4,30.9,29.86,NNW,337,0.0,-999.0,77,-99.99,,,0.00,Acu-Link.com,2013-10-24 08:34:00,
2013-10-24 04:49:00,35.6,29.7,29.86,NNW,337,0.0,-999.0,79,-99.99,,,0.00,Acu-Link.com,2013-10-24 08:49:00,
2013-10-24 05:05:00,35.6,30.1,29.86,North,0,0.0,-999.0,80,-99.99,,,0.00,Acu-Link.com,2013-10-24 09:05:00,
2013-10-24 05:20:00,35.6,31.0,29.88,NNE,22,0.0,-999.0,83,-99.99,,,0.00,Acu-Link.com,2013-10-24 09:20:00,
2013-10-24 05:35:00,35.6,31.0,29.88,NE,45,0.0,-999.0,83,-99.99,,,0.00,Acu-Link.com,2013-10-24 09:35:00,
2013-10-24 05:50:00,35.6,30.7,29.88,NE,45,0.0,-999.0,82,-99.99,,,0.00,Acu-Link.com,2013-10-24 09:50:00,
2013-10-24 06:06:00,35.6,30.7,29.89,NNW,337,0.0,-999.0,82,-99.99,,,0.00,Acu-Link.com,2013-10-24 10:06:00,
2013-10-24 06:21:00,35.6,31.0,29.89,NNW,337,0.0,-999.0,83,-99.99,,,0.00,Acu-Link.com,2013-10-24 10:21:00,
2013-10-24 06:36:00,35.6,31.0,29.89,NNW,337,0.0,-999.0,83,-99.99,,,0.00,Acu-Link.com,2013-10-24 10:36:00,
2013-10-24 06:51:00,35.6,31.3,29.89,NNE,22,0.0,-999.0,84,-99.99,,,0.00,Acu-Link.com,2013-10-24 10:51:00,
2013-10-24 07:07:00,35.6,31.5,29.90,North,0,0.0,-999.0,85,-99.99,,,0.00,Acu-Link.com,2013-10-24 11:07:00,
2013-10-24 07:22:00,35.6,31.5,29.91,North,0,0.0,-999.0,85,-99.99,,,0.00,Acu-Link.com,2013-10-24 11:22:00,
2013-10-24 07:37:00,35.6,31.5,29.91,NNE,22,0.0,-999.0,85,-99.99,,,0.00,Acu-Link.com,2013-10-24 11:37:00,
2013-10-24 07:52:00,35.6,31.8,29.91,NNE,22,0.0,-999.0,86,-99.99,,,0.00,Acu-Link.com,2013-10-24 11:52:00,
2013-10-24 08:07:00,35.6,31.8,29.91,NNE,22,0.0,-999.0,86,-99.99,,,0.00,Acu-Link.com,2013-10-24 12:07:00,
2013-10-24 08:22:00,35.6,31.8,29.92,NNW,337,0.0,-999.0,86,-99.99,,,0.00,Acu-Link.com,2013-10-24 12:22:00,
2013-10-24 08:38:00,35.6,31.8,29.93,NE,45,0.0,-999.0,86,-99.99,,,0.00,Acu-Link.com,2013-10-24 12:38:00,
2013-10-24 08:53:00,37.4,33.3,29.93,NE,45,0.0,-999.0,85,-99.99,,,0.00,Acu-Link.com,2013-10-24 12:53:00,
2013-10-24 09:08:00,41.0,35.3,29.94,ENE,67,0.0,-999.0,80,-99.99,,,0.00,Acu-Link.com,2013-10-24 13:08:00,
2013-10-24 09:24:00,44.6,34.0,29.94,ESE,112,0.0,-999.0,66,-99.99,,,0.00,Acu-Link.com,2013-10-24 13:24:00,
2013-10-24 09:39:00,48.2,33.7,29.94,South,180,3.1,-999.0,57,-99.99,,,0.00,Acu-Link.com,2013-10-24 13:39:00,
2013-10-24 09:54:00,48.2,31.4,29.94,South,180,2.7,-999.0,52,-99.99,,,0.00,Acu-Link.com,2013-10-24 13:54:00,
2013-10-24 10:09:00,48.2,31.4,29.95,ESE,112,1.6,-999.0,52,-99.99,,,0.00,Acu-Link.com,2013-10-24 14:09:00,
2013-10-24 10:24:00,50.0,32.1,29.94,South,180,1.6,-999.0,50,-99.99,,,0.00,Acu-Link.com,2013-10-24 14:24:00,
2013-10-24 10:40:00,50.0,30.6,29.95,ESE,112,2.7,-999.0,47,-99.99,,,0.00,Acu-Link.com,2013-10-24 14:40:00,
2013-10-24 10:55:00,50.0,29.5,29.94,East,90,2.7,-999.0,45,-99.99,,,0.00,Acu-Link.com,2013-10-24 14:55:00,
2013-10-24 11:10:00,51.8,33.8,29.94,NNW,337,2.7,-999.0,50,-99.99,,,0.00,Acu-Link.com,2013-10-24 15:10:00,
2013-10-24 11:25:00,53.6,33.9,29.93,ESE,112,4.0,-999.0,47,-99.99,,,0.00,Acu-Link.com,2013-10-24 15:25:00,
2013-10-24 11:40:00,53.6,35.9,29.94,SSW,202,4.0,-999.0,51,-99.99,,,0.00,Acu-Link.com,2013-10-24 15:40:00,
2013-10-24 11:56:00,53.6,34.4,29.94,South,180,4.7,-999.0,48,-99.99,,,0.00,Acu-Link.com,2013-10-24 15:56:00,
2013-10-24 12:11:00,51.8,32.7,29.93,South,180,6.3,-999.0,48,-99.99,,,0.00,Acu-Link.com,2013-10-24 16:11:00,
2013-10-24 12:26:00,53.6,34.4,29.93,SSE,157,4.0,-999.0,48,-99.99,,,0.00,Acu-Link.com,2013-10-24 16:26:00,
2013-10-24 12:41:00,55.4,36.6,29.92,SSE,157,3.6,-999.0,49,-99.99,,,0.00,Acu-Link.com,2013-10-24 16:41:00,
2013-10-24 12:56:00,55.4,33.9,29.92,North,0,2.0,-999.0,44,-99.99,,,0.00,Acu-Link.com,2013-10-24 16:56:00,
2013-10-24 13:12:00,57.2,34.3,29.91,South,180,3.1,-999.0,42,-99.99,,,0.00,Acu-Link.com,2013-10-24 17:12:00,
2013-10-24 13:27:00,59.0,35.9,29.90,WNW,292,2.0,-999.0,42,-99.99,,,0.00,Acu-Link.com,2013-10-24 17:27:00,
2013-10-24 13:42:00,55.4,32.1,29.90,SSE,157,4.7,-999.0,41,-99.99,,,0.00,Acu-Link.com,2013-10-24 17:42:00,
2013-10-24 13:57:00,57.2,33.7,29.89,SSE,157,3.6,-999.0,41,-99.99,,,0.00,Acu-Link.com,2013-10-24 17:57:00,
2013-10-24 14:12:00,57.2,33.7,29.88,ESE,112,4.0,-999.0,41,-99.99,,,0.00,Acu-Link.com,2013-10-24 18:12:00,
2013-10-24 14:28:00,59.0,34.7,29.88,East,90,3.6,-999.0,40,-99.99,,,0.00,Acu-Link.com,2013-10-24 18:28:00,
2013-10-24 14:43:00,60.8,37.0,29.87,NW,315,3.1,-999.0,41,-99.99,,,0.00,Acu-Link.com,2013-10-24 18:43:00,
2013-10-24 14:58:00,57.2,36.1,29.87,South,180,3.1,-999.0,45,-99.99,,,0.00,Acu-Link.com,2013-10-24 18:58:00,
2013-10-24 15:13:00,57.2,35.5,29.87,ESE,112,3.1,-999.0,44,-99.99,,,0.00,Acu-Link.com,2013-10-24 19:13:00,
2013-10-24 15:28:00,60.8,37.6,29.86,SSE,157,1.6,-999.0,42,-99.99,,,0.00,Acu-Link.com,2013-10-24 19:28:00,
2013-10-24 15:44:00,59.0,37.7,29.87,West,270,1.1,-999.0,45,-99.99,,,0.00,Acu-Link.com,2013-10-24 19:44:00,
2013-10-24 15:59:00,55.4,37.6,29.86,WNW,292,0.0,-999.0,51,-99.99,,,0.00,Acu-Link.com,2013-10-24 19:59:00,
2013-10-24 16:14:00,59.0,39.3,29.87,WSW,247,1.6,-999.0,48,-99.99,,,0.00,Acu-Link.com,2013-10-24 20:14:00,
2013-10-24 16:29:00,59.0,36.5,29.86,SE,135,4.7,-999.0,43,-99.99,,,0.00,Acu-Link.com,2013-10-24 20:29:00,
2013-10-24 16:44:00,60.8,38.2,29.86,West,270,0.0,-999.0,43,-99.99,,,0.00,Acu-Link.com,2013-10-24 20:44:00,
2013-10-24 16:59:00,59.0,37.1,29.86,West,270,0.0,-999.0,44,-99.99,,,0.00,Acu-Link.com,2013-10-24 20:59:00,
2013-10-24 17:14:00,59.0,38.3,29.86,West,270,0.0,-999.0,46,-99.99,,,0.00,Acu-Link.com,2013-10-24 21:14:00,
2013-10-24 17:30:00,59.0,37.7,29.86,WNW,292,0.0,-999.0,45,-99.99,,,0.00,Acu-Link.com,2013-10-24 21:30:00,
2013-10-24 17:45:00,59.0,38.8,29.87,WSW,247,0.0,-999.0,47,-99.99,,,0.00,Acu-Link.com,2013-10-24 21:45:00,
2013-10-24 18:00:00,55.4,38.1,29.87,East,90,0.0,-999.0,52,-99.99,,,0.00,Acu-Link.com,2013-10-24 22:00:00,
2013-10-24 18:15:00,55.4,39.0,29.87,NE,45,0.0,-999.0,54,-99.99,,,0.00,Acu-Link.com,2013-10-24 22:15:00,
2013-10-24 18:30:00,53.6,38.3,29.87,NNE,22,0.0,-999.0,56,-99.99,,,0.00,Acu-Link.com,2013-10-24 22:30:00,
2013-10-24 18:45:00,51.8,38.4,29.88,East,90,0.0,-999.0,60,-99.99,,,0.00,Acu-Link.com,2013-10-24 22:45:00,
2013-10-24 19:01:00,51.8,38.8,29.88,East,90,0.0,-999.0,61,-99.99,,,0.00,Acu-Link.com,2013-10-24 23:01:00,
2013-10-24 19:16:00,50.0,38.7,29.88,East,90,0.0,-999.0,65,-99.99,,,0.00,Acu-Link.com,2013-10-24 23:16:00,
2013-10-24 19:31:00,50.0,39.5,29.89,East,90,0.0,-999.0,67,-99.99,,,0.00,Acu-Link.com,2013-10-24 23:31:00,
2013-10-24 19:46:00,50.0,39.9,29.90,East,90,0.0,-999.0,68,-99.99,,,0.00,Acu-Link.com,2013-10-24 23:46:00,
2013-10-24 20:01:00,50.0,40.2,29.90,East,90,0.0,-999.0,69,-99.99,,,0.00,Acu-Link.com,2013-10-25 00:01:00,
2013-10-24 20:17:00,48.2,39.2,29.90,North,0,0.0,-999.0,71,-99.99,,,0.00,Acu-Link.com,2013-10-25 00:17:00,
2013-10-24 20:32:00,48.2,39.2,29.91,NE,45,0.0,-999.0,71,-99.99,,,0.00,Acu-Link.com,2013-10-25 00:32:00,
2013-10-24 20:47:00,48.2,38.5,29.92,NNW,337,0.0,-999.0,69,-99.99,,,0.00,Acu-Link.com,2013-10-25 00:47:00,
2013-10-24 21:02:00,48.2,38.5,29.92,NNE,22,0.0,-999.0,69,-99.99,,,0.00,Acu-Link.com,2013-10-25 01:02:00,
2013-10-24 21:17:00,48.2,38.5,29.92,NNE,22,0.0,-999.0,69,-99.99,,,0.00,Acu-Link.com,2013-10-25 01:17:00,
2013-10-24 21:33:00,48.2,37.8,29.93,NE,45,0.0,-999.0,67,-99.99,,,0.00,Acu-Link.com,2013-10-25 01:33:00,
2013-10-24 21:48:00,48.2,38.1,29.93,North,0,0.0,-999.0,68,-99.99,,,0.00,Acu-Link.com,2013-10-25 01:48:00,
2013-10-24 22:03:00,48.2,38.5,29.94,NNE,22,0.0,-999.0,69,-99.99,,,0.00,Acu-Link.com,2013-10-25 02:03:00,
2013-10-24 22:18:00,48.2,38.5,29.94,NNE,22,0.0,-999.0,69,-99.99,,,0.00,Acu-Link.com,2013-10-25 02:18:00,
2013-10-24 22:33:00,48.2,38.5,29.94,North,0,0.0,-999.0,69,-99.99,,,0.00,Acu-Link.com,2013-10-25 02:33:00,
2013-10-24 22:48:00,48.2,38.9,29.94,NNE,22,1.6,-999.0,70,-99.99,,,0.00,Acu-Link.com,2013-10-25 02:48:00,
2013-10-24 23:04:00,48.2,38.5,29.94,NW,315,1.1,-999.0,69,-99.99,,,0.00,Acu-Link.com,2013-10-25 03:04:00,
2013-10-24 23:19:00,50.0,38.7,29.94,NNE,22,0.0,-999.0,65,-99.99,,,0.00,Acu-Link.com,2013-10-25 03:19:00,
2013-10-24 23:34:00,50.0,37.5,29.94,North,0,1.6,-999.0,62,-99.99,,,0.00,Acu-Link.com,2013-10-25 03:34:00,
2013-10-24 23:50:00,50.0,36.7,29.95,ESE,112,2.7,-999.0,60,-99.99,,,0.00,Acu-Link.com,2013-10-25 03:50:00,